Met observations

Date (UTC) Wind direction m/s kts. Vis. * Weather * Cloud * Temperature (°C) Dew point (°C) Air pressure (Hp)
28-04 09:59 8 16 VIS 10 km FEW 600ft SCT 1200ft BKN 4000ft 7.1 4.2 1014.2
28-04 08:59 6 12 VIS 10 km FEW 600ft SCT 1400ft BKN 4000ft 6.2 3.8 1014.3
28-04 07:59 7 13 VIS 10 km FEW 600ft SCT 1400ft BKN 4000ft 5.7 3.6 1014.8
28-04 06:59 6 12 VIS 10 km FEW 600ft SCT 1400ft BKN 4000ft 5.4 3.5 1014.7
28-04 05:59 6 12 VIS 10 km FEW 600ft SCT 800ft BKN 1300ft 4.6 3.5 1015.0
28-04 04:59 5 10 VIS 10 km FEW 600ft SCT 800ft BKN 1300ft 4.5 3.5 1015.5
28-04 03:59 4 08 VIS 10 km FEW 600ft SCT 800ft BKN 1300ft 4.7 4.0 1015.7
28-04 02:59 3 06 VIS 10 km FEW 600ft SCT 800ft BKN 1300ft 4.9 4.4 1016.0
28-04 01:59 4 08 VIS 10 km FEW 600ft SCT 800ft BKN 1300ft 4.7 4.6 1016.5
27-04 22:59 4 07 VIS 10 km FEW 600ft SCT 800ft BKN 1300ft 4.4 4.0 1017.6
27-04 21:59 3 06 VIS 10 km FEW 600ft SCT 800ft BKN 1300ft 4.1 3.6 1017.8
27-04 20:59 2 04 VIS 10 km FEW 600ft SCT 800ft BKN 1300ft 4.1 3.3 1018.0
27-04 19:59 2 03 VIS 10 km FEW 600ft SCT 800ft BKN 1300ft 4.2 3.1 1018.2
27-04 18:59 2 04 VIS 10 km SCT 2000ft BKN 6000ft 4.5 2.9 1018.5
27-04 17:59 2 03 VIS 10 km SCT 2000ft BKN 6000ft 4.5 2.9 1018.5
27-04 16:59 3 05 VIS 10 km SCT 2000ft BKN 6000ft 5.3 2.1 1018.4
27-04 15:59 4 07 VIS 10 km SCT 2000ft BKN 6000ft 5.5 1.6 1018.4
27-04 14:59 3 06 VIS 10 km SCT 2000ft BKN 6000ft 5.7 1.4 1018.5
27-04 13:59 3 05 VIS 10 km SCT 2000ft BKN 6000ft 5.7 1.8 1018.6
27-04 12:59 2 03 VIS 10 km SCT 2000ft BKN 6000ft 6.8 2.2 1018.4
27-04 11:59 4 07 VIS 10 km SCT 2000ft BKN 6000ft 6.0 1.9 1018.5

Met data is updated every half hour and is for information only.
* Visibility, weather and cloud values are updated during the airport’s service hours only.
Flight planning documentation is available on opmet.dmi.dk.
For meteorological abbreviations, click here